Home   Weather   Ephrata   Past weeks
Flag for USA

Past Weather in Ephrata, Washington, USA — Yesterday and Last 2 Weeks

Now
93 °F

Sunny.


Feels Like: 89 °F
Forecast: 96 / 67 °F
Wind: 9 mph from South

Location: Ephrata Municipal Airport

Current Time: Jul 23, 2019 at 3:38:13 pm

Latest Report: Jul 23, 2019 at 2:53 pm


Visibility: 10 mi

Pressure: 29.84 "Hg

Humidity: 20%

Dew Point: 46 °F

Location of EphrataLocation

Past Weather in Ephrata — Graph

°F

Ephrata Temperature Yesterday

Maximum temperature yesterday: 96 °F (at 5:53 pm)
Minimum temperature yesterday: 70 °F (at 3:53 am)
Average temperature yesterday: 83 °F

High & Low Weather Summary for the Past Weeks

 TemperatureHumidityPressure
High96 °F (Jul 22, 5:53 pm)75% (Jul 18, 2:53 am)30.07 "Hg (Jul 18, 2:53 am)
Low54 °F (Jul 9, 3:53 am)10% (Jul 18, 4:53 pm)29.75 "Hg (Jul 17, 7:53 pm)
Average74 °F36%29.91 "Hg
* Reported Jul 8 1:53 pm — Jul 23 1:53 pm, Ephrata. Weather by CustomWeather, © 2019

Note: Actual official high and low records may vary slightly from our data, if they occured in-between our weather recording intervals... More about our weather records

Advertising

Ephrata Weather History for the Previous 24 Hours

Scroll right to see more
 ConditionsComfort  
Time TempWeatherWind HumidityBarometerVisibility
1:53 pm
Tue, Jul 23
91 °FSunny.8 mph18%29.86 "Hg10 mi
12:53 pm90 °FSunny.8 mph24%29.88 "Hg10 mi
11:53 am87 °FSunny.9 mph28%29.90 "Hg10 mi
10:53 am84 °FSunny.5 mph30%29.91 "Hg10 mi
9:53 am80 °FSunny.5 mph34%29.92 "Hg10 mi
8:53 am76 °FSunny.6 mph39%29.92 "Hg10 mi
7:53 am72 °FSunny.8 mph46%29.92 "Hg10 mi
6:53 am70 °FSunny.5 mph49%29.92 "Hg10 mi
5:53 am64 °FSunny.5 mph63%29.91 "Hg10 mi
4:53 am64 °FClear.7 mph63%29.90 "Hg10 mi
3:53 am65 °FClear.5 mph63%29.89 "Hg10 mi
2:53 am68 °FClear.8 mph57%29.88 "Hg10 mi
1:53 am75 °FClear.7 mph40%29.87 "Hg10 mi
12:53 am80 °FClear.12 mph32%29.87 "Hg10 mi
11:53 pm
Mon, Jul 22
74 °FClear.No wind41%29.87 "Hg10 mi
10:53 pm73 °FClear.8 mph43%29.86 "Hg10 mi
9:53 pm76 °FClear.6 mph37%29.85 "Hg10 mi
8:53 pm81 °FClear.7 mph29%29.84 "Hg10 mi
7:53 pm90 °FSunny.7 mph19%29.83 "Hg10 mi
6:53 pm94 °FSunny.8 mph15%29.83 "Hg10 mi
5:53 pm96 °FSunny.9 mph15%29.83 "Hg10 mi
4:53 pm95 °FSunny.3 mph13%29.83 "Hg10 mi
3:53 pm94 °FSunny.5 mph14%29.85 "Hg10 mi
Weather by CustomWeather, © 2019

See weather overview